User: anonymous   Login
Location: Sungai Jaoh
(2.9167°N, 113.9167°E)
Time: 04:17:02
(UTC+00:00)
Language:

NOAA 16 DEB - Orbit

View from above orbital plane
View from above orbital plane
View from above satellite
View from above satellite

Ground track
Ground track

The orbit data is extracted from the following two-line orbital elements,

1 41050U 00055H   21289.30157466  .00001822  00000-0  84969-3 0  9996
2 41050  98.9260  41.4661 0024401  99.8101 260.5833 14.21546266305177
Epoch (UTC): 16 October 2021 07:14:16
Eccentricity: 0.0024401
inclination: 98.9260°
perigee height: 802 km
apogee height: 837 km
right ascension of ascending node: 41.4661°
argument of perigee: 99.8101°
revolutions per day: 14.21546266
mean anomaly at epoch: 260.5833°
orbit number at epoch: 30517

The dashed part of the orbit path shows where the satellite is in the earth's shadow,  

DLR